Tracking 18852 objects as of 23-Nov-2017
HD Live streaming from Space Station
objects crossing your sky now

FENGYUN 1C DEB

Track FENGYUN 1C DEB now!
10-day predictions


NORAD ID: 32238
Int'l Code: 1999-025CWL
Perigee: 473.4 km
Apogee: 675.1 km
Inclination: 98.9 °
Period: 96.0 minutes
Semi major axis: 6945 km
RCS: 0.0079 m2 (small)
Launch date: May 10, 1999
Source: People's Republic of China (PRC)
Launch site: Taiyaun Space Center, China (TSC)

Note: This is SATELLITE DEBRIS
aabbcc
Your satellite tracking list
Your tracking list is empty




NASA's NSSDC Master Catalog

Two Line Element Set (TLE):
1 32238U 99025CWL 17327.15333604  .00004040  00000-0  26615-3 0  9999
2 32238  98.8636  37.0411 0145174  91.9955 269.7897 14.99928982563188
Source of the keplerian elements: AFSPC